Simultaneous Nadir Overpasses (SNOs) Predictions

Prediction of SNOs between NOAA-19 and METOP-C Satellite Orbit:

Table of predicted SNOs for the next 14.0 days since TLE Epoch: 9/4/2021
Index Date (NOAA-19) Time (NOAA-19) Lat,Lon (NOAA-19) SZA (NOAA-19 ) Date (METOP-C) Time (METOP-C) Lat,Lon (METOP-C) SZA (METOP-C ) Distance(km) Time Diff (sec)
1 09/14/2021 01:52:22 -80.64, 1.24 101.47 09/14/2021 01:53:35 -80.63, 1.25 101.46 1.79 73
2 09/14/2021 02:43:24 80.64, 168.59 78.55 09/14/2021 02:44:16 80.62, 168.50 78.55 2.53 52
3 09/14/2021 03:34:21 -80.63, -23.82 101.42 09/14/2021 03:34:56 -80.64, -23.91 101.40 2.04 35
4 09/14/2021 04:25:24 80.64, 143.18 78.59 09/14/2021 04:25:37 80.63, 143.34 78.60 2.87 13
5 09/14/2021 05:16:21 -80.62, -49.24 101.39 09/14/2021 05:16:18 -80.63, -49.40 101.40 3.09 3
6 09/14/2021 06:07:24 80.63, 117.77 78.62 09/14/2021 06:06:59 80.62, 117.84 78.61 1.63 25
7 09/14/2021 06:58:22 -80.63, -75.00 101.37 09/14/2021 06:57:40 -80.62, -74.90 101.39 2.58 42



Historial Predications of SNOs between NOAA-19 and METOP-C
